Torna al catalogo

STARLINK-32521

AttivoComunicazioniVLEO
NORAD 62117·PAYLOAD·🇺🇸 United States

Lanciato Nov 27, 2024 da Cape Canaveral Space Force Station

Loading…

Prossimi Passaggi (prossime 24 ore)

TLE

AggiornatoSource: CelesTrak SupGP

Epoca: Sep 15, 2026, 02:28 UTC

1 62117C 24222D   26258.10326389  .00047040  00000+0  17037-2 0  2586
2 62117  43.0030 142.8375 0001399 277.5520 243.6023 15.27557032    17

Traccia STARLINK-32521 in tempo reale con AllMySat

Download on the App Store